Regional Weather Roundup
Issued by NWS Jackson, KY

Home | Current Version | Previous Version | Text Only | Print | Product List | Glossary On
Versions: 1 2 3 4 5 6 7 8 9 10 11 12 13 14 15 16 17 18 19 20 21 22 23 24 25 26 27 28 29 30 31 32 33 34 35 36 37 38 39 40 41 42 43 44 45 46 47 48 49 50
000
ASUS43 KJKL 260519
RWRJKL

EAST KENTUCKY HOURLY WEATHER ROUNDUP
NATIONAL WEATHER SERVICE JACKSON KY
100 AM EDT SAT JUL 26 2014

NOTE: "FAIR" INDICATES FEW OR NO CLOUDS BELOW 12,000 FEET WITH
NO SIGNIFICANT WEATHER AND/OR OBSTRUCTIONS TO VISIBILITY.

* THESE REPORTS ARE NOT UNDER NWS QUALITY CONTROL AND MAY NOT
  REPORT WEATHER SUCH AS PRECIPITATION AND FOG.

KYZ079-080-083-085-087-088-110-112-115-119-120-260600
...EASTERN KENTUCKY...

CITY           SKY/WX    TMP DP  RH WIND       PRES   REMARKS
JACKSON        MOCLDY    65  58  78 S3        30.05S
LONDON         CLEAR     65  62  90 CALM      30.06S
SOMERSET*      PTCLDY    63  63 100 CALM      30.07R
MONTICELLO*    PTCLDY    62  61  97 CALM      30.07R FOG
WILLIAMSBURG*    N/A     63  63 100 CALM      30.06S
MIDDLESBORO*   PTCLDY    64  63  95 CALM      30.08S
HARLAN APT*    PTCLDY    63  63 100 MISG      30.08S
HAZARD APT*    CLEAR     63  63 100 CALM      30.06S FOG
BLACK MTN*       N/A     63  57  82 S6          N/A
PIKEVILLE APT* CLEAR     66  61  82 S3        30.06S
BIG SANDY*     CLOUDY    67  62  82 S5        30.04F
MOREHEAD APT*  MOCLDY    66  61  82 CALM      30.06R
ASHLAND*       CLEAR     68  61  77 CALM      30.00S
$$

KYZ035-036-041-042-044-050-067-078-099-260600
...CENTRAL KENTUCKY...

CITY           SKY/WX    TMP DP  RH WIND       PRES   REMARKS
MT STERLING*   CLOUDY    64  61  88 SW5       30.05S
FLEMING/MASON* MOCLDY    68  61  77 S3        30.04R
DANVILLE*      PTCLDY    64  61  88 S3        30.05S
RICHMOND*      CLOUDY    66  59  77 CALM      30.04R
LEXINGTON      PTCLDY    69  60  73 S3        30.04R
FRANKFORT      PTCLDY    68  61  78 CALM      30.02R
$$

KYZ091>093-OHZ055-061-077-WVZ005-015-034-035-042-260600
...SOUTHERN OHIO/WEST VIRGINIA...

CITY           SKY/WX    TMP DP  RH WIND       PRES   REMARKS
COVINGTON      MOCLDY    66  60  81 CALM      30.02S
COLUMBUS       CLOUDY    73  58  59 CALM      30.01S
DAYTON         CLOUDY    70  59  68 CALM      30.03S
WILMINGTON     CLOUDY    66  62  87 CALM      30.03R
HUNTINGTON     CLOUDY    65  61  87 CALM      30.02R
CHARLESTON     CLOUDY    65  63  93 CALM      30.02S
PINEVILLE*     CLOUDY    62  62 100 MISG      30.13S FOG
BECKLEY        CLOUDY    63  55  75 CALM      30.10S
BLUEFIELD      MOCLDY    69  58  67 S5        30.12F
$$

VAZ002-007-008-TNZ017-027-036-066-071-260600
...SOUTHWEST VIRGINIA/EAST TENNESSEE...

CITY           SKY/WX    TMP DP  RH WIND       PRES   REMARKS
WISE*          PTCLDY    61  61 100 CALM      30.13S
JONESVILLE*      N/A     64  64 100 CALM      30.09S
ABINGDON*      PTCLDY    65  62  89 CALM      30.10S
BRISTOL        MOCLDY    66  61  84 CALM      30.08R
KNOXVILLE      MOCLDY    68  63  84 CALM      30.05R
OAK RIDGE      PTCLDY    68  65  90 CALM      30.07R
CROSSVILLE     PTCLDY    63  58  83 CALM      30.11R
NASHVILLE      MOCLDY    71  64  78 CALM      30.03R
$$

...KEY TO REMARKS...
VSB - VISIBILITY IN MILES
WCI - WIND CHILL INDEX
HX  - HEAT INDEX

$$


USA.gov is the U.S. government's official web portal to all federal, state and local government web resources and services.